Location: Carri�res
(48.9069°N, 2.1792°E)
Time: 13:09:23
(UTC+00:00)

Meteor 2-13 Rocket - Pass Details

Date: 17 January 2021
Orbit: 936 x 957 km, 82.5° (Epoch: 25 February)

Event Time Altitude Azimuth Distance (km) Brightness Sun altitude
Rises 18:22:47 0° 173° (S) 3,598 7.5 -18.8°
Reaches altitude 10° 18:25:18 10° 170° (S) 2,661 6.8 -19.2°
Maximum altitude 18:31:14 57° 93° (E) 1,113 4.4 -20.1°
Drops below altitude 10° 18:37:13 10° 17° (NNE) 2,693 6.6 -21.1°
Sets 18:39:46 0° 13° (NNE) 3,645 7.3 -21.5°
